Location: *
(40.9167°S, 165.0000°W)
Time: 08:49:37
(UTC+00:00)

Daily predictions for brighter satellites

Satellite Brightness Start Highest point End
(mag) Time Altitude Azimuth Time Altitude Azimuth Time Altitude Azimuth
Cosmos 2227 Rocket 4.5 12:55:21 19° SSE 12:55:21 19° SSE 12:56:52 10° SSE
Cosmos 2263 Rocket 4.0 13:17:44 26° ESE 13:17:44 26° ESE 13:20:54 10° SE
ADEOS Rocket 4.3 13:15:01 10° SSE 13:18:02 32° SE 13:18:02 32° SE
NOSS 3-4 (C) 4.4 13:25:56 10° SSW 13:34:40 43° E 13:39:05 10° NE
SL-16 R/B 3.2 13:27:54 10° SSE 13:32:56 51° ESE 13:32:56 51° ESE
ATLAS 2AS CENTAUR R/B 4.2 13:30:09 10° SSW 13:36:17 33° SE 13:42:45 10° ENE
Cosmos 1092 Rocket 3.9 14:09:08 78° S 14:09:08 78° S 14:15:04 10° S
Cosmos 2297 Rocket 4.4 14:16:09 13° SSW 14:16:09 13° SSW 14:17:29 10° SSW
Lacrosse 5 rocket 4.0 14:16:39 11° S 14:16:39 11° S 14:16:55 10° S
Cosmos 2251 Rocket 3.6 14:21:50 68° S 14:21:50 68° S 14:26:28 10° SSE
SL-4 R/B 4.2 14:21:05 22° SSW 14:22:07 24° S 14:26:05 10° ESE
ALOS 4.4 14:37:36 15° SSW 14:37:36 15° SSW 14:38:31 10° SSW
Cosmos 2227 Rocket 4.3 14:37:09 12° SW 14:37:09 12° SW 14:38:44 10° SSW
Meteor 1-27 Rocket 4.0 14:32:09 10° S 14:37:45 66° E 14:43:23 10° NNE
Hubble Space Telescope 3.4 14:39:54 12° NNE 14:39:54 12° NNE 14:40:30 10° NE
SL-24 DEB 4.2 14:40:26 73° SW 14:40:26 73° SW 14:44:47 10° S
USA 305 4.4 14:40:26 27° NNE 14:41:11 29° NE 14:44:58 10° ESE
Chandra Rocket (1) 4.3 14:50:46 18° N 14:50:46 18° N 14:52:12 10° NNE
Meteor 2-14 Rocket 4.3 14:46:37 36° NNW 14:49:19 78° W 14:55:34 10° S
Cosmos 1743 Rocket 3.5 14:49:12 72° NNW 14:49:38 87° W 14:54:12 10° S
Cosmos 2227 4.4 14:50:21 51° W 14:50:55 53° WSW 14:56:33 10° SSE
Cosmos 2292 Rocket 4.0 14:50:27 58° WNW 14:51:10 65° W 14:57:30 10° S
Cosmos 2228 Rocket 3.8 14:48:00 10° S 14:52:24 55° E 14:56:47 10° NNE
DELTA 2 R/B (1) 4.5 14:53:21 32° N 14:53:21 32° N 14:57:27 10° NE
USA 307 4.3 14:52:26 27° NNE 14:53:44 33° NE 14:57:39 10° ESE
Cosmos 1140 Rocket 3.5 14:51:32 35° N 14:53:49 78° ENE 14:59:08 10° SSE
Cosmos 2026 Rocket 4.3 14:54:57 44° WNW 14:55:57 47° WSW 15:02:08 10° S
Cosmos 614 Rocket 4.5 14:58:17 40° WSW 14:58:17 40° WSW 15:03:05 10° S
Meteor 2-21 4.4 14:55:50 33° NNW 14:58:41 66° W 15:04:56 10° S
Cosmos 407 Rocket 3.5 14:56:24 36° NNW 14:58:43 89° WSW 15:04:10 10° SSE
Cosmos 2263 Rocket 2.8 14:59:26 35° WSW 14:59:45 36° WSW 15:04:57 10° S
Lacrosse 5 3.5 15:06:59 19° NNW 15:06:59 19° NNW 15:08:49 10° N
ADEOS Rocket 4.3 15:01:48 10° SSW 15:05:00 19° SW 15:05:00 19° SW
Cosmos 1190 Rocket 4.1 15:03:42 21° NNW 15:07:17 79° ENE 15:12:37 10° SSE
USA 306 3.6 15:07:07 31° N 15:08:48 49° NE 15:13:01 10° ESE
Cosmos 1553 Rocket 3.8 15:03:04 10° SSW 15:09:11 69° W 15:15:13 10° N
Meteor 2-16 Rocket 4.3 15:04:32 10° N 15:10:40 83° W 15:16:52 10° S
USA 308 3.7 15:10:54 27° NNW 15:12:53 48° NE 15:17:05 10° ESE
Meteor 2-21 Rocket 4.4 15:08:36 16° NNW 15:13:44 67° W 15:20:01 10° S
CZ-4C R/B 3.5 15:11:56 10° SSE 15:16:23 88° WSW 15:19:41 17° NNW
SL-16 R/B 3.7 15:12:25 10° S 15:17:13 24° WSW 15:18:02 23° WSW
YAOGAN 6 2.7 15:16:32 10° NNE 15:20:03 74° ESE 15:23:39 10° S
NOSS 3-4 (A) 4.3 15:22:42 27° WNW 15:23:11 27° WNW 15:28:16 10° NNW
NOSS 3-4 (C) 4.3 15:22:31 27° W 15:23:20 28° WNW 15:28:25 10° NNW
BREEZE-M DEB (TANK) 3.7 15:25:01 21° NNW 15:27:12 52° NE 15:36:23 10° ESE
ATLAS 2AS CENTAUR R/B 2.8 15:20:40 10° SW 15:27:34 62° WNW 15:34:55 10° NNE
Cosmos 1943 3.6 15:22:45 10° SW 15:28:02 39° WNW 15:33:16 10° N
SL-24 R/B 4.0 15:26:21 10° S 15:30:01 45° WSW 15:31:22 30° NW
Cosmos 1655 Rocket 4.0 15:24:21 10° NNW 15:30:40 74° W 15:37:08 10° S
SL-08 R/B 3.4 15:29:31 10° SSE 15:34:29 84° ENE 15:39:16 10° NNW
Cosmos 1603 4.2 15:29:29 10° SW 15:34:33 34° WNW 15:39:34 10° NNW
Meteor 1-25 Rocket 4.2 15:29:03 10° NNW 15:34:46 69° W 15:40:29 10° S
CZ-4B R/B 3.7 15:31:45 10° N 15:35:22 56° W 15:39:04 10° SSW
SJ-12 4.1 15:33:02 10° N 15:36:59 48° W 15:41:00 10° SSW
Cosmos 839 Rocket 4.2 15:31:20 12° NW 15:37:19 81° WSW 15:45:03 10° SSE
Cosmos 1707 Rocket 3.7 15:33:51 10° S 15:38:18 79° E 15:42:42 10° N
H-2A R/B 2.8 15:35:39 10° N 15:39:26 56° W 15:43:15 10° SSW
Cosmos 1666 3.7 15:41:22 10° N 15:45:07 51° E 15:48:57 10° SSE
Cosmos 1805 Rocket 4.2 15:42:16 15° NW 15:45:30 36° WSW 15:49:42 10° S
Sich 1 3.3 15:41:17 10° NNW 15:45:32 46° WSW 15:49:49 10° S
Lacrosse 4 Rocket 4.4 15:42:43 10° NE 15:45:37 17° ENE 15:48:33 10° ESE
CZ-4B R/B 3.6 15:41:49 10° NNE 15:46:19 66° ESE 15:50:47 10° S
Cosmos 1844 Rocket 2.7 15:41:51 10° NNW 15:47:25 68° WSW 15:53:04 10° SSE
Cosmos 2315 Rocket 4.1 15:41:32 10° S 15:47:55 86° E 15:54:17 10° N
Cosmos 1633 Rocket 3.1 15:44:02 10° N 15:48:28 85° E 15:52:56 10° S
ADEOS 3.6 15:44:53 10° N 15:50:03 58° WNW 15:55:17 10° SSW
RESURS DK-1 3.2 15:47:39 10° SSW 15:51:47 53° ESE 15:55:52 10° NE
Cosmos 724 4.4 15:48:55 10° NNW 15:54:39 80° ENE 16:00:31 10° SSE
Envisat 3.3 15:50:01 10° N 15:54:55 46° W 15:59:53 10° SSW
Meteor 1-14 Rocket 4.4 15:50:36 10° N 15:56:10 79° E 16:01:47 10° SSE
Cosmos 2266 Rocket 4.2 15:53:19 10° NNW 15:59:08 48° WSW 16:05:07 10° S
Milstar 3 3.9 15:54:14 12° WNW 16:00:39 31° N 16:06:25 10° ENE
ERBS 3.9 15:59:22 10° NNW 16:02:20 33° NE 16:05:22 10° ESE
SMAP 4.3 15:57:52 10° NE 16:02:21 46° ESE 16:06:53 10° S
SL-4 R/B 3.3 15:57:57 10° SW 16:02:43 48° SSE 16:07:21 10° ENE
Cosmos 1607 4.2 15:57:37 11° NW 16:03:19 47° SW 16:09:15 10° SSE
Cosmos 676 Rocket 4.2 15:59:39 10° NW 16:04:48 54° WSW 16:10:05 10° S
NOAA 12 4.5 15:59:50 10° NNE 16:05:10 73° ESE 16:10:35 10° S
Cosmos 1763 Rocket 3.9 16:01:34 10° SSW 16:06:55 70° ESE 16:12:14 10° NNE
OAO 2 Rocket 4.4 16:02:29 10° NW 16:06:59 35° NNE 16:11:29 10° ENE
Meteor 1-31 Rocket 3.8 16:04:38 10° NNW 16:07:47 24° W 16:10:58 10° SW
Meteor 1-18 Rocket 4.3 16:02:07 10° SSW 16:08:05 69° W 16:13:52 10° N
SJ-7 4.4 16:06:17 10° N 16:10:18 62° WNW 16:14:28 10° SSW
Okean 1 3.9 16:09:55 10° SSW 16:13:40 36° W 16:17:21 10° NNW
NOAA 11 4.2 16:10:24 10° N 16:15:50 70° WNW 16:21:20 10° SSW
Genesis I 3.2 16:14:07 10° NNW 16:18:01 86° ENE 16:21:52 10° SSE
Hubble Space Telescope 3.1 16:16:42 10° NW 16:18:43 13° N 16:20:45 10° NNE
USA 305 3.4 16:16:46 10° WNW 16:20:57 45° SSW 16:25:10 10° SE
MOS 1 Rocket 4.1 16:19:39 10° S 16:24:43 39° WSW 16:29:34 10° NW
Cosmos 2278 Rocket 3.9 16:19:49 10° N 16:25:00 38° ENE 16:30:13 10° SE
CZ-2C R/B 3.2 16:19:47 10° NNE 16:25:10 89° NW 16:30:20 10° SSW
